Hourly Data Report for October 28, 2014

All times are specified in Local Standard Time (LST). Add 1 hour to adjust for Daylight Saving Time where and when it is observed.

KITCHENER/WATERLOO
ONTARIO

43°27'39.000" N
80°22'43.000" W
321.60 m
6144239
71368
YKF

Download Data

Hourly Data (October 2014)
Hourly Data Report for October 28, 2014
Temp Definition
°C
Dew Point Temp Definition
°C
Rel Hum Definition
%
Wind Dir Definition
10's deg

Wind Spd Definition
km/h
Visibility Definition
km
Stn Press Definition
kPa
Hmdx Definition


Wind Chill Definition


Weather Definition


TIME
00:00 Legend Double Dagger 8.9 7.5 91 13 5 16.1 97.09     LegendNANA
01:00 Legend Double Dagger 8.6 7.5 93 12 5 16.1 97.05     LegendNANA
02:00 Legend Double Dagger 9.4 8.2 92 14 8 16.1 97.07     Rain
03:00 Legend Double Dagger 9.7 8.7 93 10 5 9.7 97.06     Rain,Fog
04:00 Legend Double Dagger 10.4 9.8 96 15 8 4.8 96.97     Rain,Fog
05:00 Legend Double Dagger 12.5 11.7 95 17 11 6.4 96.97     Fog
06:00 Legend Double Dagger 13.6 12.2 91 17 11 11.3 96.96     LegendNANA
07:00 Legend Double Dagger 14.0 12.4 90 18 17 12.9 96.93     LegendNANA
08:00 Legend Double Dagger 15.2 13.2 88 19 17 16.1 96.96     LegendNANA
09:00 Legend Double Dagger 16.5 13.7 83 20 18 16.1 96.92     LegendNANA
10:00 Legend Double Dagger 18.7 14.3 75 21 18 16.1 96.88     LegendNANA
11:00 Legend Double Dagger 18.9 14.0 73 22 32 16.1 96.85     LegendNANA
12:00 Legend Double Dagger 18.5 14.5 77 20 21 16.1 96.77     LegendNANA
13:00 Legend Double Dagger 18.0 14.0 77 22 22 16.1 96.76     LegendNANA
14:00 Legend Double Dagger 18.7 14.2 75 22 28 16.1 96.78     LegendNANA
15:00 Legend Double Dagger 17.5 13.7 78 24 37 16.1 96.78     LegendNANA
16:00 Legend Double Dagger 14.4 11.9 85 26 24 16.1 96.89     Rain
17:00 Legend Double Dagger 14.3 11.1 81 27 22 16.1 96.96     LegendNANA
18:00 Legend Double Dagger 12.6 10.2 85 25 13 16.1 97.00     LegendNANA
19:00 Legend Double Dagger 11.4 9.8 90 25 11 16.1 97.06     LegendNANA
20:00 Legend Double Dagger 11.0 9.6 91 23 13 14.5 97.08     LegendNANA
21:00 Legend Double Dagger 11.0 9.8 92 23 15 14.5 97.13     LegendNANA
22:00 Legend Double Dagger 10.8 6.3 74 26 26 16.1 97.20     LegendNANA
23:00 Legend Double Dagger 9.6 4.7 71 26 21 16.1 97.23     LegendNANA

Notes on Data Quality.

Legend

  • E = Estimated
  • M = Missing
  • NA = Not Available
  • ‡ = Partner data that is not subject to review by the National Climate Archives
Date modified: